Helicity
65 -88 -7 103 110 136 136 78 132 28 132 136 103 46 79 33 -25 36 46 211 203 109 55 59 70 119 124 175 181 168 178 147 120 70 47 39 65 62 59 81 136 198 241 302
-60 -117 46 77 108 63 80 70 85 169 299 167 63 90 -45 -123 126 35 18 75 244 156 135 146 108 156 164 171 186 187 208 200 148 114 90 78 77 73 72 49 78 124 188 176
-48 8 -39 15 76 92 51 173 40 206 138 40 125 83 21 -110 -35 -33 2 37 77 192 159 184 169 208 200 198 227 220 244 247 187 140 108 71 62 72 86 92 103 99 152 134
-46 58 66 64 76 69 73 108 92 160 142 40 78 -15 100 -6 -42 -51 -26 1 83 97 144 222 205 220 239 218 234 262 258 259 203 166 152 155 133 113 106 79 66 121 121 105
-61 80 61 21 70 22 39 -18 80 54 94 126 93 153 -1 51 40 -55 -27 -1 64 50 140 263 260 195 258 218 238 268 254 229 203 175 174 169 130 89 105 83 145 140 95 41
11 -4 -10 59 78 -18 7 113 133 114 77 77 86 109 -31 -23 44 84 35 61 73 78 9 151 222 208 183 209 236 262 276 232 185 183 165 194 190 175 158 122 148 118 71 32
2 -63 -40 -15 -18 -6 41 49 55 56 73 5 19 48 46 117 42 84 38 44 64 136 3 33 141 115 164 198 257 279 296 261 183 167 173 160 189 221 218 153 150 130 90 45
48 45 -51 -26 -40 -27 1 63 87 21 40 14 108 -17 76 21 93 -21 -42 -7 -27 -29 -65 48 42 94 115 184 235 256 283 241 196 202 194 211 251 218 166 136 119 117 76 57
54 11 14 20 30 48 -16 20 23 19 24 90 85 83 -4 -9 101 -33 -12 -39 -20 -12 1 -29 -8 97 57 140 221 231 260 223 226 268 239 247 255 219 154 168 148 114 84 48
60 89 46 7 30 56 63 42 36 36 17 21 56 1 82 76 45 -48 -43 43 25 -48 9 -19 -74 29 49 151 170 177 201 276 321 348 321 268 262 194 177 172 131 93 63 42
151 153 188 25 20 96 35 16 41 62 48 31 30 14 63 95 130 90 7 1 -36 7 15 -31 -38 1 108 169 199 249 279 340 395 383 299 297 241 162 151 120 93 89 80 82
108 70 117 111 37 3 -6 41 86 96 55 58 88 41 23 41 48 123 72 -38 -49 -24 -2 49 119 137 200 202 204 259 336 365 367 289 255 216 170 141 122 90 89 84 80 71
102 107 111 79 18 40 -2 37 83 143 93 32 104 78 150 157 36 -38 -100 -84 -107 -59 -19 57 135 207 285 304 336 355 385 375 295 244 171 164 160 130 98 88 66 73 82 93
72 133 82 33 14 -34 6 7 46 49 103 61 57 69 176 149 62 86 -18 -76 -121 -79 32 98 160 203 274 303 354 389 380 307 250 152 142 170 131 119 94 80 90 101 114 133
24 61 57 31 40 -11 -50 -2 5 -38 77 106 51 161 86 97 139 109 151 -87 -126 14 87 130 167 175 213 261 308 333 308 252 198 152 171 158 143 134 146 151 156 154 153 138
100 86 72 38 30 -16 -16 30 7 -6 -5 104 141 171 78 59 63 63 -23 -100 -47 100 131 165 182 182 209 267 312 291 284 255 220 193 207 239 214 222 202 198 186 172 155 145
72 118 43 54 57 61 -14 55 14 -16 -32 4 85 83 221 83 11 -7 -16 40 112 131 145 195 254 282 269 281 311 301 295 291 258 271 288 278 263 259 211 191 188 165 161 153
54 151 116 37 47 86 69 35 -18 -13 -75 27 140 156 62 185 -18 -43 44 94 143 127 175 217 272 294 333 350 313 311 291 285 301 308 324 313 280 233 197 205 187 177 155 126
19 45 92 111 71 34 55 75 43 38 56 227 322 356 106 139 182 278 104 43 115 140 168 256 328 349 370 392 404 365 348 348 351 354 349 299 258 230 219 211 181 164 151 112
67 57 59 92 118 90 -26 162 131 19 87 544 705 863 637 317 322 278 191 116 88 56 209 285 319 388 423 417 475 453 363 348 358 381 326 270 254 236 198 169 159 144 118 88
123 117 118 113 88 89 73 84 -13 122 184 522 696 915 780 481 289 154 76 85 79 19 99 227 403 407 471 550 574 393 396 360 373 361 304 268 249 186 166 145 140 145 120 85
26 25 79 129 96 90 80 97 25 74 202 326 426 587 625 516 257 110 82 112 142 76 94 239 348 367 513 562 464 407 394 384 315 333 319 273 173 154 156 158 165 149 102 125
4 18 26 33 35 33 16 4 -79 6 6 102 138 342 493 444 284 155 91 55 29 45 90 235 409 525 542 468 515 464 252 219 265 344 356 260 215 166 119 125 148 129 101 94
38 61 69 81 -19 4 81 25 -14 -34 -19 -14 -10 56 111 61 42 208 38 -9 -34 18 167 311 451 509 478 343 402 297 347 476 588 672 357 160 118 95 70 81 140 139 109 140
31 93 18 36 8 43 70 57 37 27 -21 11 -27 3 69 23 28 -38 -61 -49 -17 -3 174 256 374 443 367 319 479 492 559 618 400 210 316 184 289 250 248 60 61 98 81 115
98 104 107 4 -28 88 56 41 69 69 119 91 44 13 77 123 26 84 95 65 62 4 77 236 259 291 255 366 529 430 389 391 200 181 163 198 232 34 65 126 125 140 122 83
Wind_Speed
44 32 37 35 28 30 22 44 25 40 31 27 33 37 31 36 45 47 54 48 49 47 49 46 42 42 48 46 46 44 42 38 37 34 33 29 26 23 20 15 19 19 11 8
41 42 39 38 43 45 34 19 22 42 34 31 53 20 30 31 42 50 51 54 48 47 43 44 44 39 46 47 47 45 41 39 40 36 33 26 25 21 21 18 14 17 16 16
35 43 32 32 40 32 47 22 26 30 37 41 39 19 23 26 31 49 52 54 51 44 45 42 43 42 46 45 45 45 41 38 38 38 31 24 22 21 21 17 19 22 19 17
28 47 33 29 31 12 46 15 24 19 30 41 31 51 19 25 33 56 56 59 59 48 49 44 46 45 45 48 46 42 37 34 32 31 29 25 23 20 18 17 19 24 26 28
12 54 50 45 33 23 46 26 26 19 29 33 38 43 42 19 21 23 58 51 45 55 49 50 50 48 42 45 43 38 35 32 28 29 26 24 21 17 23 25 28 28 28 31
63 61 55 53 53 45 38 24 30 33 36 46 14 42 48 31 39 18 26 24 10 21 50 54 57 47 40 42 39 36 36 33 31 32 29 24 16 16 23 27 30 29 29 33
61 69 65 56 57 56 34 28 46 47 48 52 48 33 15 25 17 31 23 13 12 12 43 48 58 60 40 43 40 43 42 40 35 31 27 25 14 16 20 23 27 29 29 31
45 53 41 37 33 39 34 23 24 50 52 48 35 45 34 14 17 26 36 43 44 49 48 50 58 60 55 45 44 42 41 41 37 26 21 16 15 17 18 22 26 29 28 30
36 42 33 48 57 45 57 24 23 27 31 33 21 26 19 26 32 25 37 35 45 50 51 53 58 60 60 46 42 39 37 33 27 22 15 15 16 18 19 23 27 29 31 31
45 58 57 51 49 49 5 22 31 35 35 44 47 24 17 20 24 29 28 41 37 42 49 53 57 59 58 46 40 32 26 24 19 18 16 15 16 18 21 24 27 27 29 30
43 52 74 51 46 49 34 34 33 30 29 37 35 27 20 19 25 34 36 22 29 34 39 50 52 54 55 38 34 29 29 24 21 18 15 16 17 20 22 23 25 25 28 29
43 47 62 65 53 39 41 50 32 35 37 33 31 24 35 17 22 27 37 31 28 27 31 46 45 44 34 37 28 25 26 27 25 23 19 19 21 23 23 24 25 26 26 29
35 43 51 62 58 41 43 44 31 33 33 41 40 43 33 19 13 37 28 43 23 24 28 32 33 35 30 29 27 27 26 25 26 24 22 24 24 24 25 26 27 27 27 29
28 36 42 51 51 45 52 58 53 45 48 48 43 33 17 5 7 14 41 45 39 29 31 25 26 28 28 27 23 19 22 23 22 21 22 22 22 23 24 25 26 26 27 28
41 46 51 54 59 55 58 62 58 54 55 52 45 26 12 7 3 11 9 5 13 28 37 26 24 24 28 26 20 20 22 25 25 24 23 20 19 21 24 24 24 26 26 26
45 45 51 66 64 63 65 67 63 58 55 52 31 27 16 13 8 5 9 6 14 33 24 20 21 23 23 28 26 24 21 20 18 18 17 15 16 21 22 21 22 23 24 25
43 45 50 55 52 57 66 53 53 55 45 48 39 39 21 17 15 8 5 13 26 26 20 23 22 24 22 25 25 23 19 16 15 14 14 16 17 19 18 18 19 20 22 24
51 49 45 52 51 61 37 48 43 43 45 51 52 59 15 20 15 17 12 19 25 21 15 14 14 12 14 15 15 13 14 14 11 11 14 18 19 16 13 13 16 19 21 23
47 45 52 49 58 56 54 56 60 52 47 50 51 54 29 4 14 29 23 16 20 19 18 17 13 11 12 14 12 14 12 12 12 13 16 17 14 10 9 10 15 16 19 21
38 36 43 46 53 60 45 57 59 29 37 46 45 43 33 22 18 28 27 19 13 15 17 16 14 11 11 11 9 7 12 15 15 15 13 11 7 6 5 8 11 16 18 20
45 44 41 44 50 51 48 53 35 38 43 50 42 39 32 25 25 31 33 35 39 35 13 12 16 16 12 7 6 7 8 14 12 10 8 6 3 1 3 9 14 16 18 18
43 43 46 46 55 64 47 46 34 41 51 50 49 42 37 38 32 33 39 46 51 50 23 8 8 10 6 6 6 11 17 13 7 6 9 9 6 9 4 9 17 16 15 20
45 39 42 41 51 48 46 35 44 43 49 51 57 53 49 40 40 42 46 52 53 49 23 11 5 2 3 2 2 4 6 11 10 10 14 14 13 10 9 13 15 16 16 20
42 38 45 48 56 64 61 57 55 53 54 43 53 50 55 56 49 53 53 54 57 50 25 13 7 4 3 1 2 7 8 13 13 14 14 10 12 5 5 9 12 12 15 25
41 30 43 54 67 63 74 75 72 59 52 42 50 52 48 48 59 67 52 53 56 50 33 25 11 7 6 1 5 9 9 13 18 17 8 23 16 15 13 13 8 13 15 20
29 33 39 52 45 32 40 49 41 56 48 44 49 52 59 59 48 40 43 41 47 46 37 26 16 10 12 7 2 9 14 19 6 19 9 12 21 14 10 10 11 19 20 24
Wind_Direction
208 178 178 189 190 222 180 312 46 21 34 324 359 280 244 294 242 206 190 166 169 168 165 156 152 150 154 150 148 147 145 143 139 133 133 129 129 136 139 119 181 181 136 109
194 192 189 202 227 259 309 148 153 11 57 49 348 180 192 192 171 187 188 187 168 166 151 154 154 147 152 153 154 150 145 144 145 142 141 126 122 110 125 117 147 119 102 106
178 188 205 207 224 217 276 167 6 31 48 24 35 79 172 184 185 202 205 194 181 164 161 152 153 151 156 157 156 155 150 144 146 148 136 115 107 108 103 124 87 85 86 88
179 206 192 200 207 168 259 70 10 66 19 11 42 320 172 159 188 226 214 214 190 176 174 162 160 157 157 161 160 158 153 148 143 141 138 134 137 132 118 97 107 74 74 66
307 227 234 234 210 308 258 30 28 64 22 28 32 26 26 69 160 172 199 191 170 187 177 176 171 167 161 161 162 161 158 155 145 147 146 146 141 126 51 56 56 67 67 64
262 266 284 237 242 238 306 4 352 346 343 305 62 19 344 18 267 83 117 126 120 285 186 188 188 171 165 165 165 163 163 163 156 156 155 147 120 64 44 47 52 55 62 56
274 264 265 273 272 259 317 333 313 300 302 294 324 344 210 256 39 171 145 144 150 156 178 180 187 186 166 167 166 168 169 170 165 160 155 152 100 67 49 51 43 42 57 60
289 283 283 285 300 303 315 328 330 297 301 318 352 329 19 164 163 196 140 168 190 183 186 178 184 186 179 169 168 167 171 172 168 156 145 113 55 47 56 48 42 43 59 63
286 283 295 282 282 307 282 312 315 335 347 344 13 4 241 201 191 148 188 175 202 203 201 182 185 187 186 170 169 170 168 166 159 147 119 100 64 57 60 52 43 48 57 52
279 278 276 284 299 307 273 333 308 311 320 316 318 276 32 130 157 152 149 251 188 195 190 190 190 188 185 174 169 164 162 157 143 125 109 88 61 55 60 50 55 58 49 43
273 275 256 289 291 296 289 296 311 311 317 318 329 3 70 120 132 169 191 173 162 212 177 180 181 181 181 167 161 155 151 144 135 121 98 74 62 65 65 53 56 52 43 42
270 277 270 269 285 299 300 296 289 305 301 314 319 336 319 64 133 151 178 165 152 160 146 168 167 169 163 166 155 151 146 140 133 123 106 93 87 79 71 65 58 58 51 45
267 273 273 274 277 293 296 303 298 308 302 297 306 309 322 338 10 180 186 203 162 136 128 127 132 147 146 145 143 141 139 134 129 121 111 107 99 88 80 77 78 65 56 48
294 277 278 274 277 287 288 290 293 296 290 290 295 309 316 17 78 161 191 204 192 165 144 122 115 127 133 137 138 132 130 131 129 123 119 113 104 95 85 84 71 64 55 45
295 278 278 278 275 282 285 287 291 296 299 287 297 292 247 195 231 132 194 182 154 151 153 136 128 127 130 130 130 131 133 136 133 128 125 119 104 95 92 84 70 66 60 47
307 290 287 278 280 279 277 279 287 297 304 306 283 292 264 249 274 329 119 159 162 154 142 137 136 138 138 142 141 140 136 134 129 125 120 111 106 109 102 85 71 64 53 44
302 302 295 285 290 279 271 294 296 300 320 309 303 294 268 263 274 274 264 165 169 162 147 140 140 148 149 149 149 150 148 139 136 131 127 125 121 114 101 87 71 56 42 34
292 297 297 292 292 268 280 307 304 299 323 318 305 298 299 230 247 282 247 194 185 180 171 159 148 139 144 153 165 163 161 158 153 150 143 138 136 127 103 71 50 42 40 33
290 294 290 288 284 281 288 295 290 293 296 318 318 311 324 166 309 316 300 229 206 198 194 183 177 160 153 157 167 182 197 191 177 169 160 149 141 126 96 51 38 35 29 24
308 298 286 291 285 281 289 293 294 284 287 309 318 319 316 303 306 316 320 321 297 234 239 229 208 202 196 200 192 198 226 214 194 182 181 170 155 132 78 47 33 20 21 14
291 290 287 288 285 283 291 295 312 278 277 288 299 302 312 322 309 310 318 324 320 311 299 254 221 212 207 209 207 247 255 230 224 207 198 212 208 167 4 24 16 16 14 27
288 287 287 291 287 280 297 295 300 291 279 286 281 287 298 297 306 317 321 320 315 316 315 303 254 237 253 207 220 286 300 304 265 243 242 235 261 296 347 14 1 12 23 13
293 296 291 292 290 296 303 299 271 286 285 290 280 280 282 297 311 315 319 323 323 319 330 330 329 265 249 185 84 346 31 48 306 276 268 265 276 289 321 341 356 12 33 18
300 306 300 300 302 288 285 272 278 280 285 295 284 291 285 281 296 304 315 321 322 322 324 322 309 284 267 248 60 64 69 26 29 339 326 296 271 258 306 340 9 51 28 4
307 313 301 299 301 300 278 270 272 271 271 281 285 292 300 303 293 282 312 320 320 321 324 312 306 269 228 105 45 86 89 96 101 92 49 148 125 134 107 101 39 29 28 25
315 308 303 300 311 344 326 288 282 269 273 282 290 294 288 295 306 315 312 318 312 320 325 316 314 302 311 67 141 129 130 131 99 2 86 108 120 115 96 55 24 21 31 30